Weather History for Akron Canton, OH

Change the Weather History Date:

Saturday, November 16, 2013

  Actual Average Record
Temperature  
Mean Temperature 51 °F 42 °F  
Max Temperature 60 °F 49 °F 70 °F (1931)
Min Temperature 41 °F 34 °F 4 °F (1933)
Degree Days  
Heating Degree Days 14 23  
Month to date heating degree days 348 333  
Since 1 July heating degree days 812 888  
Cooling Degree Days 0 0  
Month to date cooling degree days 0 0  
Year to date cooling degree days 829 652  
Moisture  
Dew Point 43 °F    
Average Humidity 69    
Maximum Humidity 86    
Minimum Humidity 51    
Precipitation  
Precipitation 0.00 in 0.11 in 1.64 in (1955)
Month to date precipitation 1.30 1.73  
Year to date precipitation 36.86 35.21  
Snow  
Snow 0.00 in 0.10 in - ()
Month to date snowfall 3.2 1.1  
Since 1 July snowfall 3.2 1.5  
Since 1 September snowfall 3.2 1.5  
Snow Depth 0.00 in    
Sea Level Pressure  
Sea Level Pressure 30.12 in    
Wind  
Wind Speed 9 mph (South)    
Max Wind Speed 17 mph    
Max Gust Speed 17 mph    
Visibility 10 miles    
Events      
T = Trace of Precipitation, MM = Missing Value Source: NWS Daily Summary

Daily Weather History Graph

Daily Weather History Graph

Search for Another Location

Airport:

Trip Planner

Search our weather history database for the weather conditions in past years. The results will help you decide how hot, cold, wet, or windy it might be!

Date:

Astronomy

Nov. 16, 2013 Rise Set
Actual Time 7:14 AM EST 5:06 PM EST
Civil Twilight 6:44 AM EST 5:35 PM EST
Nautical Twilight 6:11 AM EST 6:09 PM EST
Astronomical Twilight 5:39 AM EST 6:41 PM EST
Moon 4:40 PM EST (11/16) 6:09 AM EST (11/16)
Length of Visible Light 10h 50m
Length of Day
9h 51m
Waxing Gibbous, 99% of the Moon is Illuminated
Nov 16
Waxing Gibbous
Nov 17
Full
Nov 25
Last Quarter
Dec 2
New
Dec 9
First Quarter

Hourly Weather History & Observations

Time (EST) Temp. Windchill Dew Point Humidity Pressure Visibility Wind Dir Wind Speed Gust Speed Precip Events Conditions
12:51 AM 44.1 °F 39.5 °F 33.1 °F 65% 30.17 in 10.0 mi SSW 8.1 mph - N/A   Clear
1:51 AM 43.0 °F 41.3 °F 34.0 °F 71% 30.16 in 10.0 mi SSW 3.5 mph - N/A   Clear
2:51 AM 42.1 °F 40.2 °F 35.1 °F 76% 30.16 in 10.0 mi SSW 3.5 mph - N/A   Clear
3:51 AM 41.0 °F 39.0 °F 37.0 °F 86% 30.16 in 10.0 mi SSW 3.5 mph - N/A   Clear
4:51 AM 41.0 °F 39.0 °F 37.0 °F 86% 30.17 in 10.0 mi South 3.5 mph - N/A   Partly Cloudy
5:51 AM 41.0 °F 39.0 °F 37.0 °F 86% 30.17 in 10.0 mi SSE 3.5 mph - N/A   Overcast
6:51 AM 45.0 °F 43.5 °F 36.0 °F 71% 30.20 in 10.0 mi South 3.5 mph - N/A   Mostly Cloudy
7:51 AM 44.1 °F 40.1 °F 37.9 °F 79% 30.20 in 10.0 mi South 6.9 mph - N/A   Mostly Cloudy
8:51 AM 48.0 °F - 39.9 °F 74% 30.19 in 10.0 mi South 8.1 mph - N/A   Scattered Clouds
9:51 AM 51.1 °F - 39.9 °F 66% 30.20 in 10.0 mi South 9.2 mph - N/A   Mostly Cloudy
10:51 AM 51.1 °F - 39.0 °F 63% 30.20 in 10.0 mi South 9.2 mph - N/A   Mostly Cloudy
11:51 AM 55.9 °F - 43.0 °F 62% 30.15 in 10.0 mi South 11.5 mph - N/A   Mostly Cloudy
12:51 PM 60.1 °F - 51.1 °F 72% 30.12 in 10.0 mi South 11.5 mph - N/A   Mostly Cloudy
1:51 PM 60.1 °F - 43.0 °F 53% 30.10 in 10.0 mi South 11.5 mph - N/A   Mostly Cloudy
2:51 PM 57.9 °F - 54.0 °F 87% 30.08 in 10.0 mi South 13.8 mph - N/A   Overcast
3:51 PM 57.9 °F - 48.0 °F 70% 30.06 in 10.0 mi South 13.8 mph - N/A   Overcast
4:51 PM 57.0 °F - 48.0 °F 72% 30.07 in 10.0 mi South 17.3 mph - N/A   Overcast
5:51 PM 55.0 °F - 50.0 °F 83% 30.07 in 10.0 mi SSW 15.0 mph - N/A   Mostly Cloudy
6:51 PM 55.0 °F - 50.0 °F 83% 30.05 in 10.0 mi South 11.5 mph - N/A   Mostly Cloudy
7:51 PM 55.0 °F - 50.0 °F 83% 30.05 in 10.0 mi South 11.5 mph - N/A   Mostly Cloudy
8:51 PM 54.0 °F - 46.9 °F 77% 30.02 in 10.0 mi South 9.2 mph - N/A   Overcast
9:51 PM 55.0 °F - 50.0 °F 83% 30.01 in 10.0 mi South 9.2 mph - N/A   Overcast
10:51 PM 55.0 °F - 50.0 °F 83% 29.98 in 10.0 mi South 9.2 mph - N/A   Overcast
11:51 PM 55.0 °F - 50.0 °F 83% 29.96 in 10.0 mi South 11.5 mph - N/A   Overcast